STARLINK-38411, 100639

Orbit data source: Space-Track

STARLINK-38411, 100639 is a payload satellite owned by SpaceX/Seattle (US) in LEO that was launched on Sun, 06 Sep 2026 UTC launched from the Air Force Western Test Range (AFWTR). Payload-class satellites include a variety of spacecraft equipped with specific instruments for various scientific and technological missions. These include communications satellites like Starlink; space stations such as the ISS; scientific satellites like the Hubble; Earth observation satellites from companies like Planet Labs, Umbra, and HawkEye 360; GPS; miniature CubeSats for education and research; and military/defense satellites.

Not visible in the next 10 days
Identifier
100639, 2026-204AA
Orbit
LEO
Country
Flag of USUS
Related business
Manufacturer
SpaceX/Seattle
Mission
Operational spacecraft
Bus & Motor
STARLINK V2MO, Unknown motor
Mass
575 kg wet, ~530 kg dry
Launch date (UTC)
2026-09-06 (5 days ago)
Launch vehicle
Unknown
Launch site
Air Force Western Test Range (AFWTR)
Object type
Payload
Rocket body
Debris
Shape & HBR
BOX + PAN, 17.7 m
Radar Cross Section
RCS unknown

Expand to show TLE details & history
Last TLE update: 20 hours ago

TLE from 20 hours ago
0 STARLINK-38411
1 A0639U          26253.57097159 -.02091732  12782-2 -44247-2 0  9990
2 A0639  69.9952 266.2684 0005239 235.0632 125.0086 15.98723822   643
Epoch: 2026-09-10T13:42Z
TLE epoch observation values (Epoch: 2026-09-10T13:42:11.945Z)
Latitude
-0.00007°
Longitude
71.11183°
Altitude
282.491 km
Speed
7.737 km/s
True Right ascension
17h 45m 04s
True Declination
0° 00' 00"
Sunlit
Object was in daylight at epoch
Visualization orbit readout
Latitude
Unknown
Longitude
Unknown
Altitude
Unknown
Speed
Unknown
Apparent Right ascension
Unknown
Apparent Declination
Unknown
Sunlit
N/A
Visualization observer readout
Local Sidereal Time
02:30:14
Azimuth
Unknown
Elevation
Unknown
Doppler factor
Unknown
Orbital elements
Apogee altitude
279.302 km
Perigee altitude
272.33 km
Semi-major axis
6,653.953 km
Eccentricity
0.00052
Inclination
69.9952°
RAAN
266.2684°
Arg. of periapsis
235.0632°
True anomaly
125.05775°
Mean anomaly
125.0086°
Eccentric anomaly
125.03318°
Mean motion
3.99874 °/min
Orbital period
90.03 mins
BSTAR
-0.0044247
Loading maneuver chart data...
Computing Atmospheric mass density...
Loading historical data...
Loading historical data...
Loading historical data...
Loading historical data...
Loading historical data...
Loading historical data...
Loading historical data...

Documentation

Showing up to 5 results
|